[Iaude] MPEC M04: 2016 NS171 [a=1.90,e=0.36,i=16.7,H=20.1]

mpec at marsden.cfa.harvard.edu mpec at marsden.cfa.harvard.edu
Fri Jun 17 01:49:49 EDT 2022


M.P.E.C. 2022-M04                                 Issued 2022 June 17, 05:47 UT

     The Minor Planet Electronic Circulars contain information on unusual
         minor planets and routine data on comets.  They are published
    on behalf of Division F of the International Astronomical Union by the
          Minor Planet Center, Smithsonian Astrophysical Observatory,
                          Cambridge, MA 02138, U.S.A.

             Prepared using the Tamkin Foundation Computer Network

                              MPC at CFA.HARVARD.EDU
            URL https://www.minorplanetcenter.net/    ISSN 1523-6714

                                   2016 NS171                                   


Observations:
     K16NH1S* C2016 07 04.49626 20 47 33.597-17 16 24.30         20.8 wLEM004F51
     K16NH1S  C2016 07 04.50696 20 47 33.098-17 16 07.62         21.2 wLEM004F51
     K16NH1S  C2016 07 04.51766 20 47 32.622-17 15 51.24         20.9 wLEM004F51
     K16NH1S  C2016 07 04.52838 20 47 32.131-17 15 34.55         20.7 wLEM004F51
     K16NH1S  C2016 07 05.06370 20 47 11.29 -17 01 41.0          19.8 RcEM004J04
     K16NH1S  C2016 07 05.07539 20 47 10.75 -17 01 22.5          20.3 RcEM004J04
     K16NH1S  C2016 07 05.08708 20 47 10.18 -17 01 03.4          20.3 RcEM004J04
     K16NH1S  C2016 07 06.52358 20 46 07.840-16 22 49.12         20.0 wLEM004F51
     K16NH1S  C2016 07 06.53530 20 46 07.233-16 22 30.20         20.0 wLEM004F51
     K16NH1S  C2016 07 06.54698 20 46 06.625-16 22 11.21         20.2 wLEM004F51
     K16NH1S  C2016 07 06.55866 20 46 06.056-16 21 52.47         20.8 wLEM004F51
     K16NH1S  C2016 07 13.36781 20 39 40.85 -13 03 00.4          19.8 VqEM004G96
     K16NH1S  C2016 07 13.37344 20 39 40.42 -13 02 49.6          19.7 VqEM004G96
     K16NH1S  C2016 07 13.37907 20 39 39.99 -13 02 39.2          19.7 VqEM004G96
     K16NH1S  C2016 07 13.38477 20 39 39.58 -13 02 28.2          19.8 VqEM004G96
     K16NH1S  C2016 07 13.46550 20 39 34.444-12 59 53.48         20.3 wLEM004F51
     K16NH1S  C2016 07 13.47715 20 39 33.571-12 59 31.59         20.0 wLEM004F51
     K16NH1S  C2016 07 13.48882 20 39 32.692-12 59 09.60         20.0 wLEM004F51
     K16NH1S  C2016 07 13.50046 20 39 31.812-12 58 47.61         19.9 wLEM004F51

Observer details:
F51 Pan-STARRS 1, Haleakala.  Observers B. Gibson, T. Goggia, N. Primak, A.
    Schultz, M. Willman.  Measurers K. Chambers, S. Chastel, L. Denneau, H.
    Flewelling, M. Huber, E. Lilly, E. Magnier, R. Wainscoat, C. Waters, R.
    Weryk.  1.8-m Ritchey-Chretien + CCD.
G96 Mt. Lemmon Survey.  Observer A. D. Grauer.  Measurers E. J. Christensen,
    D. C. Fuls, A. R. Gibbs, A. D. Grauer, J. A. Johnson, R. A. Kowalski, S.
    M. Larson, G. J. Leonard, R. G. Matheny, R. L. Seaman, F. C. Shelly.
    1.5-m reflector + 10K CCD.
J04 ESA Optical Ground Station, Tenerife.  Observer D. Abreu.  Measurers M.
    Biesiada, H. Bill, M. Busch, U. Carsenty, F. Hormuth, A. Knofel, D.
    Koschny, G. Lehmann, M. Micheli, E. Schwab, S. Shurpakov.  1.0-m f/4.4
    reflector + CCD.

Orbital elements:
2016 NS171                                               Earth MOID = 0.3392 AU
Epoch 2022 Aug. 9.0 TT = JDT 2459800.5                  Rankin                   
M  78.40847              (2000.0)            P               Q                  
n   0.37593024     Peri.   76.33680     +0.95344423     -0.13922663             
a   1.9013608      Node   291.13113     -0.00510544     +0.87947070             
e   0.3629536      Incl.   16.66597     +0.30152618     +0.45513431             
P   2.62           H   20.17          G   0.15           U   8                  
Residuals in seconds of arc
160704 F51  0.1+  0.0     160706 F51  0.2-  0.2+    160713 G96  0.1+  0.2+
160704 F51  0.1-  0.1+    160706 F51  0.1-  0.0     160713 F51  0.1-  0.2-
160704 F51  0.1+  0.1-    160706 F51  0.1-  0.0     160713 F51  0.1-  0.2-
160704 F51  0.1+  0.0     160706 F51  0.5+  0.3-    160713 F51  0.1-  0.3-
160705 J04  0.0   0.5-    160713 G96  0.3+  0.0     160713 F51  0.2-  0.2-
160705 J04  0.1+  0.2-    160713 G96  0.1+  0.2+
160705 J04  0.2-  0.7+    160713 G96  0.2-  0.0

Ephemeris:
2016 NS171               a,e,i = 1.90, 0.36, 17                  q = 1.2113
Date    TT    R. A. (2000) Decl.     Delta      r    Elong.  Phase     V
2022 05 18    05 18 40.6 +26 07 14   2.4925  1.6232    24.1    14.8    24.0
...
2022 06 02    06 02 35.7 +25 11 09   2.6179  1.6961    19.5    11.5    24.1
...
2022 06 10    06 24 43.6 +24 25 51   2.6812  1.7347    16.8     9.8    24.1
...
2022 06 16    06 40 44.2 +23 45 48   2.7266  1.7635    14.8     8.4    24.2
2022 06 17    06 43 21.5 +23 38 40   2.7340  1.7683    14.4     8.2    24.2
2022 06 18    06 45 57.9 +23 31 23   2.7413  1.7731    14.1     8.0    24.2
...
2022 06 24    07 01 19.7 +22 45 11   2.7838  1.8016    11.9     6.7    24.2
...
2022 07 02    07 21 05.3 +21 37 13   2.8365  1.8392     9.0     5.0    24.2
...
2022 07 17    07 56 00.0 +19 13 07   2.9215  1.9080     3.5     1.9    24.1

M. P. C. Staff               (C) Copyright 2022 MPC           M.P.E.C. 2022-M04




More information about the Iaude mailing list